| time (UTC) | temp C | wind direction | speed KPH | gust KPH | rain 1hr cm | rain 24hr cm | rain mn cm | humidity % | barometer mb |
| 20260505101255 | 25 | 0.0 | 0.0 | 0.00 | 0.00 | 0.00 | 43 | 734.8 | |
| 20260505095744 | 24 | 0.0 | 0.0 | 0.00 | 0.00 | 0.00 | 43 | 734.0 | |
| 20260505094232 | 23 | 0.0 | 0.0 | 0.00 | 0.00 | 0.00 | 46 | 733.3 | |
| 20260505092720 | 22 | 0.0 | 0.0 | 0.00 | 0.00 | 0.00 | 46 | 732.3 | |
| 20260505091208 | 22 | 0.0 | 0.0 | 0.00 | 0.00 | 0.00 | 48 | 731.4 | |
| 20260505085657 | 21 | 0.0 | 0.0 | 0.00 | 0.00 | 0.00 | 52 | 730.9 | |
| 20260505084145 | 21 | 0.0 | 0.0 | 0.00 | 0.00 | 0.00 | 53 | 730.3 | |
| 20260505082633 | 20 | 0.0 | 0.0 | 0.00 | 0.00 | 0.00 | 53 | 729.4 | |
| 20260505075610 | 19 | 0.0 | 0.0 | 0.00 | 0.00 | 0.00 | 58 | 728.3 | |
| 20260505074058 | 18 | 0.0 | 0.0 | 0.00 | 0.00 | 0.00 | 58 | 727.8 | |
| 20260505072546 | 18 | 0.0 | 0.0 | 0.00 | 0.00 | 0.00 | 59 | 727.2 | |
| 20260505071034 | 18 | 0.0 | 0.0 | 0.00 | 0.00 | 0.00 | 61 | 726.7 | |
| 20260505065523 | 17 | 0.0 | 0.0 | 0.00 | 0.00 | 0.00 | 61 | 726.3 | |
| 20260505064011 | 17 | 0.0 | 0.0 | 0.00 | 0.00 | 0.00 | 60 | 726.1 | |
| 20260505062459 | 17 | 0.0 | 0.0 | 0.00 | 0.00 | 0.00 | 63 | 725.8 | |
| 20260505060947 | 17 | 0.0 | 0.0 | 0.00 | 0.00 | 0.00 | 65 | 725.4 | |
| 20260505055435 | 16 | 0.0 | 0.0 | 0.00 | 0.00 | 0.00 | 66 | 724.9 | |
| 20260505053923 | 16 | 0.0 | 0.0 | 0.00 | 0.00 | 0.00 | 66 | 724.2 | |
| 20260505052411 | 15 | 0.0 | 0.0 | 0.00 | 0.00 | 0.00 | 68 | 723.6 | |
| 20260505050900 | 15 | 0.0 | 0.0 | 0.00 | 0.00 | 0.00 | 69 | 723.0 | |
| 20260505040812 | 13 | 0.0 | 0.0 | 0.00 | 0.00 | 0.00 | 69 | 721.9 | |
| 20260505035300 | 13 | 0.0 | 0.0 | 0.00 | 0.00 | 0.00 | 68 | 721.9 | |
| 20260505033748 | 13 | 0.0 | 0.0 | 0.00 | 0.00 | 0.00 | 68 | 721.9 | |
| 20260505032237 | 13 | 0.0 | 0.0 | 0.00 | 0.00 | 0.00 | 68 | 721.8 | |
| 20260505030725 | 13 | 0.0 | 0.0 | 0.00 | 0.00 | 0.00 | 67 | 721.9 | |
| 20260505025213 | 14 | 0.0 | 0.0 | 0.00 | 0.00 | 0.00 | 66 | 722.2 | |
| 20260505023701 | 14 | 0.0 | 0.0 | 0.00 | 0.00 | 0.00 | 64 | 722.6 | |
| 20260505022152 | 15 | 0.0 | 0.0 | 0.00 | 0.00 | 0.00 | 62 | 722.9 | |
| 20260505020637 | 15 | 0.0 | 0.0 | 0.00 | 0.00 | 0.00 | 62 | 723.1 | |
| 20260505015125 | 14 | 0.0 | 0.0 | 0.00 | 0.00 | 0.00 | 62 | 722.7 | |
| 20260505013623 | 15 | 0.0 | 0.0 | 0.00 | 0.00 | 0.00 | 61 | 723.0 | |
| 20260505012101 | 15 | 0.0 | 0.0 | 0.00 | 0.00 | 0.00 | 59 | 723.7 | |
| 20260505010549 | 16 | 0.0 | 0.0 | 0.00 | 0.00 | 0.00 | 57 | 724.0 | |
| 20260505005037 | 16 | 0.0 | 0.0 | 0.00 | 0.00 | 0.00 | 59 | 724.0 | |
| 20260505003525 | 16 | 0.0 | 0.0 | 0.00 | 0.00 | 0.00 | 61 | 724.0 | |
| 20260505002013 | 16 | 0.0 | 0.0 | 0.00 | 0.00 | 0.00 | 59 | 724.5 | |
| 20260505000501 | 16 | 0.0 | 0.0 | 0.00 | 0.00 | 0.00 | 58 | 724.5 | |
| 20260504234949 | 16 | 0.0 | 0.0 | 0.00 | 0.00 | 0.00 | 58 | 724.4 | |
| 20260504231925 | 16 | 0.0 | 0.0 | 0.00 | 0.00 | 0.00 | 56 | 724.7 | |
| 20260504230422 | 16 | 0.0 | 0.0 | 0.00 | 0.00 | 0.00 | 54 | 725.0 | |
| 20260504224912 | 16 | 0.0 | 0.0 | 0.00 | 0.00 | 0.00 | 54 | 725.2 | |
| 20260504223350 | 17 | 0.0 | 0.0 | 0.00 | 0.00 | 0.00 | 54 | 725.6 | |
| 20260504221842 | 17 | 0.0 | 0.0 | 0.00 | 0.00 | 0.00 | 54 | 725.3 | |
| 20260504220326 | 17 | 0.0 | 0.0 | 0.00 | 0.00 | 0.00 | 51 | 726.1 | |
| 20260504214814 | 18 | 0.0 | 0.0 | 0.00 | 0.00 | 0.00 | 49 | 726.7 | |
| 20260504213302 | 18 | 0.0 | 0.0 | 0.00 | 0.00 | 0.00 | 50 | 726.9 | |
| 20260504211751 | 18 | 0.0 | 0.0 | 0.00 | 0.00 | 0.00 | 46 | 727.3 | |
| 20260504210238 | 18 | 0.0 | 0.0 | 0.00 | 0.00 | 0.00 | 48 | 727.4 | |
| 20260504204726 | 19 | 0.0 | 0.0 | 0.00 | 0.00 | 0.00 | 48 | 727.8 | |
| 20260504203214 | 19 | 0.0 | 0.0 | 0.00 | 0.00 | 0.00 | 46 | 728.3 | |
| 20260504201703 | 20 | 0.0 | 0.0 | 0.00 | 0.00 | 0.00 | 44 | 729.1 | |
| 20260504200151 | 20 | 0.0 | 0.0 | 0.00 | 0.00 | 0.00 | 44 | 729.4 | |
| 20260504194639 | 21 | 0.0 | 0.0 | 0.00 | 0.00 | 0.00 | 41 | 730.5 | |
| 20260504193127 | 22 | 0.0 | 0.0 | 0.00 | 0.00 | 0.00 | 40 | 731.1 | |
| 20260504191615 | 22 | 0.0 | 0.0 | 0.00 | 0.00 | 0.00 | 39 | 731.6 | |
| 20260504184551 | 23 | 0.0 | 0.0 | 0.00 | 0.00 | 0.00 | 35 | 733.3 | |
| 20260504183039 | 24 | 0.0 | 0.0 | 0.00 | 0.00 | 0.00 | 35 | 734.0 | |
| 20260504181527 | 25 | 0.0 | 0.0 | 0.00 | 0.00 | 0.00 | 33 | 734.5 | |
| 20260504180016 | 26 | 0.0 | 0.0 | 0.00 | 0.00 | 0.00 | 31 | 735.8 | |
| 20260504174504 | 26 | 0.0 | 0.0 | 0.00 | 0.00 | 0.00 | 32 | 736.5 | |
| 20260504172952 | 28 | 0.0 | 0.0 | 0.00 | 0.00 | 0.00 | 30 | 738.4 | |
| 20260504171440 | 28 | 0.0 | 0.0 | 0.00 | 0.00 | 0.00 | 29 | 739.1 |